星链-37045(STARLINK-37045)

导读

STARLINK-37045(NORAD编号68074)是美国SpaceX公司星链(Starlink)卫星互联网星座的一员,属于低地轨道(LEO)通信卫星。星链项目旨在通过大规模低轨卫星组网,为全球尤其是偏远地区提供高速低延迟宽带互联网服务,该卫星继承了星链卫星紧凑平板设计的技术特点,适配猎鹰9号火箭高密度发射。 作为星链持续扩张星座规模的一部分,它运行在约550公里高度的近地轨道,围绕地球周期约96分钟,主要承担全球网络覆盖补点任务,助力星链构建全球最大的卫星通信网络,目前处于在轨运行状态,服务个人及商业用户的互联网接入需求。

Basic Information
目录编号:
68074
目录名称:
STARLINK-37045
国际标识:
2026-042F
轨道中心:
EARTH
卫星名称:
星链-37045
卫星全名:
星链-37045(STARLINK-37045)
卫星状态:
在轨 (已飞行184 天)
发射日期:
2026-03-04 UTC
国别 :
美国 (US)
星等 :
--
Orbit Information
数据来源 国际轨道数据
星历时间: 2026-09-02T19:58:47+0800
1天前
查看轨道信息
半长轴: 6840.845km
偏心率: 0.0001235
轨道倾角: 53.159°
近地点辐角 91.790°
升交点赤经 74.061°
平近点角 268.325°
近地点: 461.863km
远地点: 463.553km
周期: 93.848分钟
每日圈数: 15.343987
Detailed Information
固有亮度:
5
最大亮度:
2.5
卫星平台:
Starlink V1.0
覆盖范围:
全球
运营商:
太空探索技术公司
运营商所在国:
美国
制造商(研发单位):
太空探索技术公司
制造商所在国:
美国
使用方式:
暂无
Satellite Introduction
Starlink 计划是 SpaceX 推出的全球卫星互联网项目,通过发射低轨道卫星,为全球尤其是偏远地区提供高速、低延迟的互联网服务。自 2019 年起,Starlink 已部署数千颗卫星,旨在缩小全球数字鸿沟,推动互联网普及。该项目还为军事、航空等行业提供通信支持,带来广泛经济效益。
2D Orbit Map
3D Orbit Map
Orbit Altitude Analysis Chart
Orbit Inclination Analysis Chart
Orbit Comprehensive Analysis Chart
View Comprehensive Chart
Conjunction Data List
Event ID Objects TCA Miss Dist (km) Collision Risk Probability Collision Risk Index (CRI) Action
CDM_260905-011606-195406-807421
2026-09-05T
01:16:46+0000
0.631 km
远距离
5.214788E-5 中风险 0.69
CDM_260905-064506-195406-807421
2026-09-05T
06:45:01+0000
0.699 km
远距离
3.799196E-5 中风险 0.67
CDM_260904-133006-602506-807421
2026-09-04T
13:30:32+0000
0.864 km
远距离
2.684925E-5 中风险 0.64
CDM_260904-014706-602506-807421
2026-09-04T
01:47:07+0000
0.931 km
远距离
2.088247E-5 中风险 0.61
CDM_260904-032006-602506-807422
2026-09-04T
03:20:55+0000
1.727 km
极远距离
2.691289E-6 低风险 0.44
CDM_260904-115606-602506-807421
2026-09-04T
11:56:45+0000
2.286 km
极远距离
1.355515E-6 低风险 0.38
CDM_260904-163705-210206-807421
2026-09-04T
16:37:18+0000
2.819 km
极远距离
1.010325E-6 低风险 0.35